This is the latest recevied weather packets stored in our database for station/object KN6WGU. If no packets are shown the sender has not sent any weather packets the latest 10 day(s).
| Time | Temp. | Humidity | Pressure | Rain* | Wind** | Luminosity | Snow |
|---|---|---|---|---|---|---|---|
| 1787515040 | 25° C | 54% | 1006.1 hPa | 0 mm | - | 453 W/m² | - |
| 1787514738 | 24.44° C | 55% | 1006.1 hPa | 0 mm | - | 466 W/m² | - |
| 1787514433 | 24.44° C | 57% | 1006.1 hPa | 0 mm | - | 476 W/m² | - |
| 1787514133 | 24.44° C | 54% | 1006.2 hPa | 0 mm | - | 485 W/m² | - |
| 1787513828 | 24.44° C | 54% | 1006.2 hPa | 0 mm | - | 496 W/m² | - |
| 1787513523 | 24.44° C | 55% | 1006.2 hPa | 0 mm | - | 508 W/m² | - |
| 1787513219 | 24.44° C | 55% | 1006.3 hPa | 0 mm | - | 513 W/m² | - |
| 1787512915 | 24.44° C | 53% | 1006.3 hPa | 0 mm | - | 522 W/m² | - |
| 1787512611 | 24.44° C | 54% | 1006.4 hPa | 0 mm | - | 524 W/m² | - |
| 1787512307 | 24.44° C | 56% | 1006.2 hPa | 0 mm | - | 537 W/m² | - |
| 1787512002 | 24.44° C | 54% | 1006.3 hPa | 0 mm | - | 555 W/m² | - |
| 1787511698 | 23.89° C | 54% | 1006.4 hPa | 0 mm | - | 559 W/m² | - |
| 1787511396 | 23.89° C | 56% | 1006.4 hPa | 0 mm | - | 560 W/m² | - |
| 1787511091 | 24.44° C | 55% | 1006.6 hPa | 0 mm | - | 558 W/m² | - |
| 1787510790 | 23.89° C | 55% | 1006.6 hPa | 0 mm | - | 569 W/m² | - |
| 1787510486 | 23.89° C | 57% | 1006.6 hPa | 0 mm | - | 573 W/m² | - |
| 1787510181 | 23.89° C | 59% | 1006.6 hPa | 0 mm | - | 587 W/m² | - |
| 1787509879 | 23.89° C | 58% | 1006.5 hPa | 0 mm | - | 602 W/m² | - |
| 1787509578 | 23.33° C | 59% | 1006.6 hPa | 0 mm | - | 585 W/m² | - |
| 1787509275 | 23.33° C | 60% | 1006.5 hPa | 0 mm | - | 291 W/m² | - |
| 1787508974 | 23.33° C | 59% | 1006.7 hPa | 0 mm | - | 582 W/m² | - |
| 1787508671 | 23.33° C | 63% | 1006.5 hPa | 0 mm | - | 585 W/m² | - |
| 1787508371 | 23.33° C | 64% | 1006.6 hPa | 0 mm | - | 569 W/m² | - |
| 1787508067 | 23.33° C | 61% | 1006.5 hPa | 0 mm | - | 604 W/m² | - |
| 1787507763 | 22.78° C | 62% | 1006.7 hPa | 0 mm | - | 611 W/m² | - |
* Rain latest hour (hover to see other rain measurements)
** Current wind speed in m/s (hover to see current wind gust speed)